Waarnemingen

Advertentie
Mijn weer
Biarritz, Frankrijk (7602): temperatuur & dauwpunt: 19.06.2017 05:00:00 - 25.06.2017 05:00:00 (CEST)Biarritz, Frankrijk (7602): temperatuur 5cm: 19.06.2017 05:00:00 - 25.06.2017 05:00:00 (CEST)Biarritz, Frankrijk (7602): temperatuur -20cm & temperatuur -100cm: 19.06.2017 05:00:00 - 25.06.2017 05:00:00 (CEST)Biarritz, Frankrijk (7602): windsnelheid & windstoten: 19.06.2017 05:00:00 - 25.06.2017 05:00:00 (CEST)Biarritz, Frankrijk (7602): windrichting: 19.06.2017 05:00:00 - 25.06.2017 05:00:00 (CEST)Biarritz, Frankrijk (7602): luchtdruk: 19.06.2017 05:00:00 - 25.06.2017 05:00:00 (CEST)Biarritz, Frankrijk (7602): zicht: 19.06.2017 05:00:00 - 25.06.2017 05:00:00 (CEST)Biarritz, Frankrijk (7602): Zonneschijnduur: 19.06.2017 05:00:00 - 25.06.2017 05:00:00 (CEST)Biarritz, Frankrijk (7602): neerslag: 19.06.2017 05:00:00 - 25.06.2017 05:00:00 (CEST)
Datum & Tijd tt [°C] td [°C] tt 5cm [°C] tt -20cm [°C] tt -100cm [°C] ff [km/u] ff [kn] fx [km/u] fx [kn] dd ppp [hPa] vv [km] sd [min] rr [mm]
25.06.2017 05:00:00 16,1 15,3 11,9 22,0 20,7 6 3 14 8 ZZO 1020,9 16 0 0,0
25.06.2017 04:00:00 16,1 14,8 11,9 22,1 20,6 5 3 10 5 ZZO 1021,0 14 0 0,0
25.06.2017 03:00:00 16,8 15,1 12,8 22,2 20,6 6 3 7 4 ZZO 1021,5 19 0 0,0
25.06.2017 02:00:00 17,7 15,3 14,4 22,4 20,6 4 2 5 3 ZW 1022,0 29 0 0,0
25.06.2017 01:00:00 18,7 14,6 14,5 22,5 20,7 3 1 6 4 Z 1022,5 44 0 0,0
25.06.2017 00:00:00 19,9 14,7 18,6 22,6 20,7 6 3 10 5 NNW 1022,7 59 0 0,0
24.06.2017 23:00:00 20,1 14,9 18,8 22,7 20,7 6 3 9 5 NNW 1022,5 58 0 0,0
24.06.2017 22:00:00 20,3 14,9 19,0 22,7 20,7 4 2 12 6 NW 1021,9 55 26 0,0
24.06.2017 21:00:00 20,8 15,3 21,0 22,7 20,7 7 4 18 10 N 1021,3 60 4 0,0
24.06.2017 20:00:00 21,3 15,4 22,3 22,7 20,7 11 6 20 11 N 1021,3 56 2 0,0
24.06.2017 19:00:00 21,3 15,4 22,4 22,6 20,7 12 6 26 14 N 1021,4 47 0 0,0
24.06.2017 18:00:00 22,1 16,1 24,3 22,5 20,7 16 9 28 15 NNW 1021,7 33 11 0,0
24.06.2017 17:00:00 22,1 15,9 25,9 22,4 20,7 16 9 28 15 N 1021,5 20 8 0,0
24.06.2017 16:00:00 23,0 15,3 23,9 22,3 20,7 11 6 20 11 NNW 1021,6 41 24 0,0
24.06.2017 15:00:00 23,2 15,0 24,6 22,2 20,7 5 3 14 8 O 1021,8 20 11 0,0
24.06.2017 14:00:00 21,9 15,3 21,9 22,1 20,7 9 5 25 13 NNW 1022,1 20 0 0,0
24.06.2017 13:00:00 22,3 14,7 24,8 21,9 20,7 8 5 16 8 OZO 1022,3 35 19 0,0
24.06.2017 12:00:00 22,2 15,1 25,1 21,8 20,7 10 5 20 11 O 1022,1 20 21 0,0
24.06.2017 11:00:00 21,5 15,3 23,5 21,8 20,7 8 4 16 8 O 1022,3 34 20 0,0
24.06.2017 10:00:00 20,5 16,1 20,7 21,8 20,7 5 3 9 5 O 1022,6 33 0 0,0
24.06.2017 09:00:00 19,6 16,2 19,3 21,8 20,7 5 3 8 5 O 1022,7 25 0 0,0
24.06.2017 08:00:00 18,9 16,5 18,2 21,9 20,7 6 3 10 6 OZO 1022,6 30 0 0,0
24.06.2017 07:00:00 18,4 16,4 17,9 22,0 20,7 6 4 9 5 O 1022,6 29 0 0,0
24.06.2017 06:00:00 18,4 16,4 17,8 22,1 20,7 5 3 8 4 O 1022,8 30 0 0,0
24.06.2017 05:00:00 18,2 16,7 16,7 22,2 20,7 3 2 9 5 OZO 1023,1 24 0 0,0
24.06.2017 04:00:00 18,4 15,6 16,1 22,3 20,7 5 3 6 3 ZZO 1023,9 25 0 0,0
24.06.2017 03:00:00 18,7 15,2 15,1 22,4 20,8 4 2 6 3 ZO 1024,2 43 0 0,0
24.06.2017 02:00:00 19,6 15,3 17,1 22,4 20,8 3 2 9 5 N 1024,6 49 0 0,0
24.06.2017 01:00:00 20,2 15,4 19,8 22,5 20,8 6 3 12 7 N 1024,9 54 0 0,0
24.06.2017 00:00:00 20,5 15,7 20,0 22,6 20,8 5 3 13 7 NNW 1025,0 47 0 0,0
23.06.2017 23:00:00 20,5 15,5 20,0 22,6 20,8 6 3 15 8 N 1025,0 43 0 0,0
23.06.2017 22:00:00 20,6 15,6 20,3 22,7 20,8 7 4 15 8 N 1024,4 44 0 0,0
23.06.2017 21:00:00 20,7 16,5 20,7 22,7 20,8 8 4 14 7 NW 1023,9 38 0 0,0
23.06.2017 20:00:00 20,8 17,0 21,1 22,6 20,8 6 3 14 8 WNW 1023,7 34 0 0,0
23.06.2017 19:00:00 20,8 16,2 21,3 22,6 20,8 11 6 15 8 NW 1023,6 46 0 0,0
23.06.2017 18:00:00 21,5 16,0 23,4 22,5 20,8 11 6 19 10 NW 1023,7 46 0 0,0
23.06.2017 17:00:00 21,7 15,8 23,7 22,5 20,8 12 7 22 12 NW 1023,7 44 0 0,0
23.06.2017 16:00:00 21,6 16,3 23,0 22,4 20,8 13 7 20 11 NW 1023,6 42 0 0,0
23.06.2017 15:00:00 22,2 16,7 24,8 22,3 20,8 13 7 22 12 WNW 1023,4 20 0 0,0
23.06.2017 14:00:00 21,7 16,4 22,3 22,3 20,8 13 7 21 12 WNW 1023,7 28 0 0,0
23.06.2017 13:00:00 21,0 17,0 21,4 22,3 20,8 12 7 20 11 NW 1023,9 29 0 0,0
23.06.2017 12:00:00 20,1 18,4 19,2 22,3 20,8 6 3 14 8 ZW 1024,0 9 0 0,0
23.06.2017 11:00:00 19,3 18,0 19,2 22,3 20,8 5 3 9 5 ZZW 1024,0 8 0 0,0
23.06.2017 10:00:00 19,4 18,4 19,1 22,3 20,8 4 2 8 4 Z 1023,9 7 0 0,0
23.06.2017 09:00:00 19,0 18,2 18,5 22,4 20,8 4 2 10 5 ZW 1023,5 6 0 0,0
23.06.2017 08:00:00 18,8 17,8 18,5 22,4 20,8 6 3 21 11 ZZW 1023,2 5 0 0,0
23.06.2017 07:00:00 19,4 17,5 18,4 22,5 20,7 9 5 19 10 NW 1022,8 11 0 0,0
23.06.2017 06:00:00 19,5 17,5 18,4 22,6 20,7 8 4 23 12 WNW 1022,5 15 0 0,0
23.06.2017 05:00:00 19,5 18,2 18,7 22,7 20,7 14 7 24 13 WNW 1022,5 9 0 0,2
23.06.2017 04:00:00 19,6 17,9 18,3 22,7 20,7 16 9 27 15 W 1022,4 10 0 0,0
23.06.2017 03:00:00 19,2 17,3 18,3 22,9 20,7 21 11 31 17 WNW 1022,5 11 0 0,0
23.06.2017 02:00:00 19,9 18,0 19,1 23,0 20,7 19 10 30 16 W 1022,6 11 0 0,0
23.06.2017 01:00:00 20,0 17,6 19,7 23,0 20,7 21 12 32 17 WNW 1022,1 23 0 0,0
23.06.2017 00:00:00 20,5 17,5 19,6 23,2 20,7 19 11 35 19 W 1021,8 19 0 0,0
22.06.2017 23:00:00 20,3 18,1 19,1 23,2 20,7 18 10 29 15 W 1021,3 16 0 0,0
22.06.2017 22:00:00 19,9 18,0 19,5 23,4 20,7 21 11 34 18 W 1021,0 13 0 0,0
22.06.2017 21:00:00 20,3 17,7 19,6 23,4 20,7 19 10 35 19 W 1020,4 17 0 0,0
22.06.2017 20:00:00 20,5 17,3 20,6 23,5 20,7 22 12 34 18 W 1020,1 22 0 0,0
22.06.2017 19:00:00 20,7 17,9 20,7 23,6 20,7 21 11 33 18 W 1019,7 14 0 0,0
22.06.2017 18:00:00 20,9 18,5 21,1 23,6 20,6 20 11 33 18 WNW 1019,8 11 0 0,0
22.06.2017 17:00:00 21,2 18,4 21,9 23,7 20,6 19 10 29 16 W 1019,8 12 0 0,0
22.06.2017 16:00:00 21,3 18,5 22,2 23,7 20,6 19 11 28 15 W 1019,6 11 0 0,0
22.06.2017 15:00:00 21,4 18,8 22,6 23,8 20,6 17 9 27 14 W 1019,5 10 0 0,0
22.06.2017 14:00:00 21,6 18,8 23,3 23,8 20,6 13 7 20 11 WNW 1019,2 12 0 0,0
22.06.2017 13:00:00 21,6 18,8 22,9 23,8 20,6 11 6 19 10 WNW 1019,0 10 0 0,0
22.06.2017 12:00:00 21,7 18,7 23,3 23,8 20,5 12 7 25 14 W 1019,0 10 0 0,0
22.06.2017 11:00:00 21,6 19,0 22,3 23,9 20,6 21 11 29 15 WNW 1019,0 9 0 0,0
22.06.2017 10:00:00 21,3 18,9 21,9 24,0 20,5 19 10 27 15 WNW 1018,5 8 0 0,0
22.06.2017 09:00:00 21,4 19,1 21,5 24,1 20,5 19 10 29 16 W 1018,1 7 0 0,0
22.06.2017 08:00:00 21,3 19,2 21,2 24,2 20,5 17 9 26 14 WNW 1017,5 6 0 0,0
22.06.2017 07:00:00 21,3 19,6 21,2 24,3 20,5 19 10 31 17 W 1017,1 6 0 0,0
22.06.2017 06:00:00 21,7 20,2 21,5 24,5 20,5 23 12 32 17 W 1016,6 7 0 0,0
22.06.2017 05:00:00 22,3 21,1 22,1 24,6 20,4 18 10 29 16 W 1015,9 8 0 0,0
22.06.2017 04:00:00 22,4 21,7 22,3 24,7 20,4 16 9 27 15 W 1015,8 4,0 0 0,0
22.06.2017 03:00:00 23,5 22,5 22,3 24,9 20,4 16 8 25 13 W 1015,5 6 0 0,0
22.06.2017 02:00:00 23,6 20,7 20,7 25,0 20,4 7 4 12 7 WZW 1015,4 23 0 0,0
22.06.2017 01:00:00 24,2 18,6 20,8 25,2 20,4 4 2 10 5 ZW 1015,5 33 0 0,0
22.06.2017 00:00:00 24,5 18,2 19,6 25,3 20,4 5 3 11 6 ZZW 1015,3 28 0 0,0
21.06.2017 23:00:00 26,3 17,9 21,3 25,5 20,4 6 3 10 5 ZZW 1014,9 29 0 0,0
21.06.2017 22:00:00 28,0 16,3 26,4 25,6 20,4 10 5 16 9 N 1014,4 31 23 0,0
21.06.2017 21:00:00 29,6 16,4 29,6 25,6 20,4 13 7 16 9 NNW 1014,1 33 60 0,0
21.06.2017 20:00:00 33,0 19,1 33,2 25,7 20,3 6 4 13 7 NNO 1013,7 19 60 0,0
21.06.2017 19:00:00 32,4 18,2 34,9 25,7 20,3 10 6 15 8 NNW 1013,5 39 60 0,0
21.06.2017 18:00:00 34,7 19,5 39,0 25,6 20,3 9 5 14 8 N 1013,2 41 60 0,0
21.06.2017 17:00:00 34,4 19,2 38,9 25,3 20,3 10 5 21 12 NW 1013,3 33 60 0,0
21.06.2017 16:00:00 34,0 20,0 39,2 24,9 20,2 4 2 15 8 WNW 1013,8 33 60 0,0
21.06.2017 15:00:00 34,0 18,1 39,1 24,4 20,3 9 5 15 8 O 1014,0 35 60 0,0
21.06.2017 14:00:00 33,9 17,2 38,9 24,0 20,3 3 2 11 6 OZO 1014,5 36 60 0,0
21.06.2017 13:00:00 32,8 18,9 38,6 23,7 20,3 4 2 11 6 ZO 1014,8 39 60 0,0
21.06.2017 12:00:00 31,7 19,7 37,8 23,5 20,2 4 2 10 5 ZZO 1015,1 29 60 0,0
21.06.2017 11:00:00 30,1 19,8 33,9 23,3 20,2 3 1 6 3 ZZO 1015,0 20 60 0,0
21.06.2017 10:00:00 27,8 19,1 26,4 23,3 20,2 3 2 6 3 OZO 1015,0 27 60 0,0
21.06.2017 09:00:00 24,8 19,0 21,9 23,4 20,2 2 1 10 5 ZZO 1015,0 29 60 0,0
21.06.2017 08:00:00 21,5 18,9 19,6 23,5 20,2 4 2 10 6 ZO 1014,8 20 53 0,0
21.06.2017 07:00:00 20,3 18,4 18,0 23,6 20,2 9 5 12 6 ZZO 1014,7 21 5 0,0
21.06.2017 06:00:00 20,0 18,5 18,5 23,8 20,1 7 4 13 7 ZZO 1014,5 15 0 0,0
21.06.2017 05:00:00 20,3 18,8 18,3 23,9 20,1 8 5 13 7 ZO 1014,8 14 0 0,0
21.06.2017 04:00:00 20,9 19,6 18,5 24,1 20,1 5 3 9 5 ZZO 1015,3 13 0 0,0
21.06.2017 03:00:00 22,3 20,9 19,0 24,2 20,1 3 2 6 4 ZZO 1015,4 10 0 0,0
21.06.2017 02:00:00 23,1 21,0 20,8 24,3 20,1 3 1 6 4 NNW 1015,8 11 0 0,0
21.06.2017 01:00:00 23,1 21,2 19,8 24,4 20,1 6 4 8 5 N 1016,1 15 0 0,0
21.06.2017 00:00:00 23,5 21,6 21,0 24,6 20,1 4 2 9 5 ZZW 1016,2 16 0 0,0
20.06.2017 23:00:00 23,8 20,3 21,5 24,7 20,1 6 4 10 5 W 1015,9 20 0 0,0
20.06.2017 22:00:00 24,4 20,5 22,5 24,8 20,0 4 2 11 6 ZW 1015,8 27 3 0,0
20.06.2017 21:00:00 25,5 21,0 25,4 24,8 20,0 10 5 21 11 W 1015,3 26 60 0,0
20.06.2017 20:00:00 27,1 20,4 28,9 24,8 20,0 13 7 22 12 WNW 1015,2 32 60 0,0
20.06.2017 19:00:00 29,3 20,2 32,0 24,8 20,0 16 9 21 12 NW 1014,9 43 60 0,0
20.06.2017 18:00:00 32,1 15,6 36,0 24,7 20,0 9 5 16 8 NW 1014,6 34 60 0,0
20.06.2017 17:00:00 32,4 16,3 37,1 24,5 20,0 9 5 19 10 NNW 1015,0 31 60 0,0
20.06.2017 16:00:00 32,0 16,3 36,1 24,1 20,0 11 6 23 12 NW 1015,5 20 60 0,0
20.06.2017 15:00:00 32,3 17,8 - 23,7 20,0 15 8 23 12 NW 1015,9 20 - -
20.06.2017 14:00:00 33,5 16,8 38,3 23,4 20,0 5 3 16 9 ZZW 1015,7 20 60 0,0
20.06.2017 13:00:00 32,5 17,9 33,2 23,2 19,9 9 5 18 10 ZZO 1015,9 56 34 0,0
20.06.2017 12:00:00 30,9 16,5 33,5 23,0 19,9 7 4 16 9 Z 1016,0 42 35 0,0
20.06.2017 11:00:00 30,0 18,1 31,6 22,9 19,9 8 4 13 7 ZZO 1016,0 46 31 0,0
20.06.2017 10:00:00 27,0 18,8 26,1 22,9 19,9 5 3 10 5 ZO 1016,1 20 28 0,0
20.06.2017 09:00:00 24,7 19,1 24,7 22,9 19,9 4 2 9 5 OZO 1016,1 34 50 0,0
20.06.2017 08:00:00 24,1 18,5 20,4 23,0 19,9 4 2 11 6 ZW 1016,1 20 60 0,0
20.06.2017 07:00:00 20,9 18,5 18,3 23,2 19,8 4 2 13 7 OZO 1016,0 18 10 0,0
20.06.2017 06:00:00 21,2 17,8 19,1 23,3 19,8 4 2 10 5 ONO 1015,8 23 0 0,0
20.06.2017 05:00:00 20,8 18,4 18,5 23,4 19,8 5 3 11 6 ZO 1015,4 20 0 0,0
20.06.2017 04:00:00 21,9 18,7 18,7 23,5 19,8 9 5 11 6 ONO 1015,3 25 0 0,0
20.06.2017 03:00:00 22,4 18,6 21,1 23,6 19,8 8 4 18 10 OZO 1015,3 25 0 0,0
20.06.2017 02:00:00 22,2 19,0 21,2 23,8 19,8 9 5 16 9 O 1015,3 22 0 0,0
20.06.2017 01:00:00 22,3 19,3 20,1 23,9 19,8 7 4 11 6 OZO 1016,2 21 0 0,0
20.06.2017 00:00:00 22,9 19,1 21,4 24,1 19,8 8 5 21 12 W 1017,1 24 0 0,0
19.06.2017 23:00:00 23,4 19,1 22,4 24,2 19,8 14 7 51 27 WZW 1017,4 20 0 0,0
19.06.2017 22:00:00 23,3 19,9 22,8 24,4 19,7 37 20 59 32 W 1017,3 20 0 0,0
19.06.2017 21:00:00 24,4 19,9 24,2 24,5 19,7 21 11 32 17 W 1015,1 20 7 0,0
19.06.2017 20:00:00 24,8 21,1 25,6 24,5 19,7 27 15 39 21 W 1014,2 20 53 0,0
19.06.2017 19:00:00 28,2 22,2 30,9 24,4 19,7 27 14 36 19 W 1013,0 20 60 0,0
19.06.2017 18:00:00 35,7 15,4 39,5 24,3 19,7 11 6 16 8 NNW 1012,2 41 60 0,0
19.06.2017 17:00:00 36,1 15,3 40,4 24,1 19,7 8 5 23 12 WZW 1012,3 20 60 0,0
19.06.2017 16:00:00 37,4 15,2 41,5 23,7 19,7 9 5 26 14 Z 1012,4 20 60 0,0
19.06.2017 15:00:00 37,1 16,1 39,6 23,2 19,6 10 6 30 16 Z 1012,6 32 60 0,0
19.06.2017 14:00:00 36,0 15,2 39,5 22,9 19,7 14 8 31 17 Z 1012,9 52 60 0,0
19.06.2017 13:00:00 35,0 15,8 38,3 22,5 19,7 16 9 32 17 Z 1013,1 24 60 0,0
19.06.2017 12:00:00 33,8 14,8 37,5 22,2 19,6 11 6 23 12 Z 1013,0 42 60 0,0
19.06.2017 11:00:00 31,4 20,7 34,5 22,0 19,6 6 4 10 5 O 1013,0 20 60 0,0
19.06.2017 10:00:00 27,6 20,4 25,1 22,0 19,6 4 2 11 6 O 1013,1 20 60 0,0
19.06.2017 09:00:00 24,8 19,6 22,1 22,1 19,6 6 3 11 6 NO 1013,1 18 60 0,0
19.06.2017 08:00:00 21,9 19,1 18,6 22,2 19,6 5 3 9 5 ONO 1012,8 30 60 0,0
19.06.2017 07:00:00 18,9 17,9 16,9 22,3 19,6 6 4 12 6 O 1012,6 23 11 0,2
19.06.2017 06:00:00 18,9 17,9 17,2 22,4 19,6 9 5 14 8 O 1012,3 19 0 0,0
19.06.2017 05:00:00 19,0 17,7 16,6 22,6 19,6 9 5 15 8 OZO 1012,4 23 0 0,0

tt = temperatuur
td = dauwpunt
tt 5cm = temperatuur 5cm
tt -20cm = temperatuur -20cm
tt -100cm = temperatuur -100cm
ff = windsnelheid
fx = windstoten
dd = windrichting
ppp = luchtdruk
vv = zicht
sd = Zonneschijnduur
rr = neerslag

Weerstations in de omgeving